EHI
0 0 0 0 0 0 0 0 0 0 0 0 0 0 1 2 4 5 5 4 4 4 4 4 5 5 5 5 5 4 3 3 3 4 5 6 7 8 8 6 5 5 4 3
0 0 0 0 0 0 0 0 0 0 0 0 0 0 1 2 3 4 4 5 5 5 4 4 4 4 4 4 3 3 2 2 2 3 5 5 6 7 7 5 4 4 3 3
0 0 0 0 0 0 0 0 0 0 0 0 0 0 0 1 1 3 4 6 6 4 3 3 3 3 4 4 2 1 1 1 2 2 4 5 5 4 4 4 3 4 4 4
0 0 0 0 0 0 0 0 0 0 0 0 0 0 0 0 1 2 4 6 6 3 2 1 1 2 3 4 2 0 0 1 2 2 3 5 5 2 1 2 3 4 5 6
0 0 0 0 0 0 0 0 0 0 0 0 0 0 0 0 0 1 4 5 5 3 1 0 1 2 3 3 2 0 0 1 2 1 2 4 4 1 0 1 2 4 6 6
0 0 0 0 0 0 0 0 0 0 0 0 0 0 0 0 0 0 2 2 2 3 2 1 1 3 3 1 1 0 0 1 1 1 1 3 2 0 0 1 2 3 5 6
0 0 0 0 0 0 0 0 0 0 0 0 0 0 0 0 0 0 0 0 1 2 3 3 2 2 2 1 0 0 0 0 0 1 1 2 1 0 0 1 1 1 3 5
0 0 0 0 0 0 0 0 0 0 0 0 0 0 0 0 1 1 1 1 1 1 3 3 3 1 1 0 0 0 0 0 0 0 1 1 0 0 0 0 0 0 1 3
0 0 0 0 0 0 0 0 0 0 0 0 0 0 0 1 2 2 2 2 2 1 2 3 3 1 0 0 0 0 0 0 0 0 0 0 0 0 0 0 0 0 1 2
0 0 0 0 0 0 0 0 0 0 0 0 0 0 0 1 2 3 2 3 2 1 1 3 4 3 1 0 0 0 0 0 0 0 0 0 0 0 0 0 0 0 0 1
0 0 0 0 0 0 0 0 0 0 0 0 0 0 0 0 1 2 2 2 1 0 1 3 4 3 1 0 0 0 0 0 0 0 0 0 0 0 0 0 0 0 0 0
0 0 0 0 0 0 0 0 0 0 0 0 0 0 0 0 0 1 1 1 0 0 1 2 3 3 1 0 0 0 0 0 0 0 0 0 0 0 0 0 0 0 0 0
0 0 0 0 0 0 0 0 0 0 0 0 0 0 0 0 0 0 0 0 0 0 0 1 2 2 1 0 0 0 0 0 0 0 0 0 0 0 0 0 0 0 0 0
0 0 0 0 0 0 0 0 0 0 0 0 0 0 0 0 0 0 0 0 0 0 0 1 2 2 1 0 0 0 0 0 0 0 0 0 0 0 0 0 0 0 0 0
0 0 0 0 0 0 0 0 0 0 0 0 0 0 0 0 0 0 0 0 0 0 0 0 1 1 0 0 0 0 0 0 0 0 1 1 1 0 0 0 0 0 0 0
0 0 0 0 0 0 0 0 0 0 0 0 0 0 0 0 0 0 0 0 0 0 0 0 0 0 0 0 1 1 1 0 0 1 2 2 1 0 0 0 0 0 0 0
0 0 0 0 0 0 0 0 0 0 0 0 0 0 0 0 0 0 0 0 0 0 0 0 0 0 0 0 1 2 2 1 0 1 3 3 2 1 0 0 0 0 0 0
0 0 0 0 0 0 0 0 0 0 0 0 0 0 0 0 0 0 0 0 0 0 0 0 0 1 0 0 1 1 2 1 1 1 2 2 2 1 0 0 0 0 0 0
0 0 0 0 0 0 0 0 0 0 0 0 0 0 0 0 0 0 0 0 0 0 0 0 0 1 0 0 0 0 1 1 0 1 1 1 1 0 0 0 0 0 0 0
0 0 0 0 0 0 0 0 0 0 0 0 0 0 0 0 0 0 0 0 0 0 0 0 0 1 0 0 0 0 0 0 0 0 0 0 0 0 0 0 0 0 0 0
0 0 0 0 0 0 0 0 0 0 0 0 0 0 0 0 0 0 0 0 0 0 0 0 0 0 0 0 0 0 0 0 0 0 0 0 0 0 0 0 0 0 0 0
0 0 0 0 0 0 0 0 0 0 0 0 0 0 0 0 0 0 0 0 0 0 0 0 0 0 0 0 0 0 0 0 0 0 0 0 0 0 0 0 0 0 0 0
0 0 0 0 0 0 0 0 0 0 0 0 0 0 0 0 0 0 0 0 0 0 0 0 0 0 0 0 0 0 0 0 0 0 0 0 0 0 0 0 0 0 0 0
0 0 0 0 0 0 0 0 0 0 0 0 0 0 0 0 0 0 0 0 0 0 0 0 0 0 0 0 0 0 0 0 0 0 0 0 0 0 0 0 0 0 0 0
0 0 0 0 0 0 0 0 0 0 0 0 0 0 0 0 0 0 0 0 0 0 0 0 0 0 0 0 0 0 0 0 0 0 0 0 0 0 0 0 0 0 0 0
0 0 0 0 0 0 0 0 0 0 0 0 0 0 0 0 0 0 0 0 0 0 0 0 0 0 0 0 0 0 0 0 0 0 0 0 0 0 0 0 0 0 0 0
0 0 0 0 0 0 0 0 0 0 0 0 0 0 0 0 0 0 0 0 0 0 0 0 0 0 0 0 0 0 0 0 0 0 0 0 0 0 0 0 0 0 0 0
Wind_Speed
10 10 9 8 9 9 10 9 9 8 8 6 3 1 2 2 3 4 3 3 3 2 2 2 2 2 2 2 2 2 2 2 2 3 3 3 3 2 2 2 2 3 3 3
12 12 11 11 11 10 10 10 10 10 9 5 4 1 1 2 3 3 3 3 3 2 2 2 2 2 2 2 3 2 3 2 2 2 2 3 3 3 2 2 2 3 3 3
10 10 12 11 9 9 9 9 9 9 6 4 3 1 1 2 2 3 3 3 2 2 1 2 2 2 2 2 2 2 2 2 2 2 2 3 3 3 3 3 2 3 2 3
8 9 11 5 2 4 5 6 5 5 3 3 3 2 1 1 2 3 3 3 2 1 1 1 2 2 2 2 3 3 2 2 2 2 2 2 3 3 2 2 3 2 2 3
6 8 10 5 2 2 4 4 3 4 3 4 3 1 2 1 2 2 2 2 2 1 1 2 2 2 2 3 3 3 2 2 2 2 3 3 3 3 2 2 2 3 3 3
7 8 8 3 3 3 4 3 2 3 3 3 2 2 1 2 2 2 1 1 1 1 1 1 2 2 2 2 3 3 3 2 2 2 3 4 4 3 2 2 2 2 2 3
9 9 7 2 3 3 3 1 4 4 4 3 2 2 1 1 1 0 1 1 1 1 1 1 2 2 3 2 2 2 2 2 2 2 3 3 4 3 3 3 3 3 3 2
7 9 6 2 1 2 2 3 4 5 4 3 2 2 1 1 1 0 1 1 1 1 1 2 2 2 2 1 2 1 2 2 2 2 2 3 3 3 4 4 3 3 3 2
4 3 1 2 2 2 3 4 4 4 5 4 3 2 1 1 1 1 1 1 2 2 2 2 2 3 2 2 2 2 2 2 2 2 2 3 4 4 3 3 3 3 3 3
6 4 3 2 1 1 3 4 4 4 4 4 3 3 2 1 1 1 1 2 2 2 2 2 2 2 2 2 2 2 2 2 2 2 2 3 3 3 3 3 3 3 3 3
8 6 4 3 3 3 4 4 5 5 4 4 4 3 3 3 2 1 1 2 2 2 3 3 3 3 3 2 2 2 2 2 2 2 3 3 2 2 3 3 4 4 3 3
6 5 5 4 3 4 5 5 5 6 6 5 4 3 3 3 1 1 2 2 3 3 3 3 3 3 3 3 3 3 3 3 2 2 2 2 3 2 1 2 4 5 5 5
7 6 6 6 4 4 5 5 5 5 6 5 4 3 4 3 2 2 2 3 3 3 3 3 3 3 3 4 4 4 3 3 2 2 2 2 3 3 2 1 1 3 5 6
5 5 7 6 5 5 6 6 5 5 6 6 4 3 3 3 3 3 4 3 3 4 4 4 4 3 3 3 3 3 3 3 3 3 3 3 3 3 3 3 2 1 3 6
7 7 6 6 6 6 6 6 5 5 5 5 4 4 4 4 4 4 3 3 3 4 4 4 4 3 3 3 3 4 3 2 3 2 2 3 3 2 3 3 3 2 2 3
7 7 6 6 6 7 7 7 6 6 6 6 6 5 5 4 4 4 3 3 4 4 4 4 4 3 3 3 3 3 2 4 3 2 3 3 3 3 3 3 3 3 3 4
6 7 6 6 7 7 7 7 7 6 6 6 6 5 5 4 4 4 3 3 3 3 3 3 3 3 3 3 3 2 2 3 4 3 3 3 3 3 3 3 3 3 4 5
7 7 7 7 7 7 7 6 6 6 6 6 6 5 4 4 4 4 3 3 2 2 2 2 1 1 2 2 3 2 2 3 3 3 3 3 3 3 3 4 4 4 3 4
6 6 6 7 7 6 6 6 6 6 6 5 5 5 4 4 3 3 3 2 2 2 2 1 1 2 2 3 3 2 3 3 3 3 3 3 3 3 3 3 4 4 4 4
6 6 6 7 6 6 6 5 5 5 4 4 5 5 4 4 3 3 1 2 2 2 1 1 1 2 2 2 2 2 3 3 3 3 3 3 3 3 3 3 3 4 4 4
5 5 6 6 6 5 5 5 4 4 4 3 3 3 3 3 3 2 1 1 1 1 1 1 1 1 1 2 3 2 2 3 3 3 3 3 3 3 3 3 3 3 3 3
5 5 5 5 5 5 5 4 3 3 3 3 3 3 3 3 2 1 1 1 1 2 1 1 1 1 2 3 2 3 3 3 2 2 3 3 3 3 3 3 3 3 3 3
4 4 4 4 4 4 5 4 3 2 3 3 3 3 3 2 2 1 1 1 1 2 1 1 2 3 3 2 2 2 2 2 2 2 2 3 3 3 3 3 3 3 3 3
4 4 4 4 4 4 4 4 3 2 2 2 2 2 2 2 2 1 1 1 1 2 1 1 2 2 3 2 1 2 2 2 2 2 2 2 2 2 2 2 2 2 2 3
5 4 4 3 3 3 4 3 3 2 2 1 2 2 2 2 2 1 1 1 1 2 2 1 2 2 2 1 1 1 2 2 2 2 2 2 2 2 2 2 2 2 2 2
4 3 2 3 3 3 3 2 1 1 1 1 1 2 2 1 1 1 1 1 2 2 1 1 1 2 1 1 1 1 1 2 2 2 2 2 2 2 2 2 2 2 2 2
4 3 1 2 2 2 2 2 2 2 1 1 2 2 2 2 1 1 1 1 1 1 1 1 1 1 1 1 1 1 1 1 1 1 1 2 2 2 2 2 2 2 2 2
Wind_Direction
276 287 284 273 265 257 256 262 271 281 291 305 327 38 126 122 117 129 139 137 133 144 147 145 164 171 155 147 159 164 155 159 176 161 161 148 144 160 154 146 142 127 130 130
275 274 273 267 260 256 259 263 268 273 278 301 314 2 94 143 144 154 153 143 141 151 143 163 172 162 157 164 166 157 150 152 154 147 143 142 150 156 147 158 143 128 130 125
271 272 276 261 254 251 254 261 263 269 282 304 307 338 225 167 162 157 148 137 139 150 156 177 174 162 172 173 161 154 144 147 146 145 139 148 150 137 145 146 128 125 128 130
270 272 259 259 287 267 266 281 286 286 299 300 313 340 40 93 144 138 139 144 148 166 178 187 165 160 166 159 154 145 144 142 142 142 140 140 129 131 151 147 145 151 149 148
259 265 269 263 264 273 275 281 306 306 318 323 325 5 42 43 86 102 115 126 140 177 196 182 156 147 160 161 158 154 160 169 163 160 156 151 148 153 156 144 150 160 156 152
250 259 263 288 354 345 297 262 322 320 326 335 330 292 323 47 42 50 79 94 113 163 214 141 134 143 153 159 165 170 176 185 177 177 168 165 165 163 157 153 159 156 159 157
245 253 262 311 354 339 267 327 4 358 350 344 314 324 21 51 38 11 127 136 157 182 171 132 144 151 154 157 166 175 175 177 173 179 181 175 166 161 160 160 164 172 165 153
236 243 249 22 334 303 335 4 9 3 349 342 337 360 21 17 354 158 160 178 178 154 140 139 147 146 148 156 143 137 155 172 178 182 186 167 155 163 168 164 167 173 165 154
244 248 331 356 360 356 344 333 353 358 344 335 332 318 312 289 292 240 199 190 167 160 164 170 159 153 170 173 149 155 174 180 179 179 173 162 163 174 171 169 173 180 170 170
266 256 271 275 295 320 321 317 332 338 334 331 326 320 293 271 264 252 223 184 174 175 191 183 175 175 184 165 162 176 184 185 184 184 173 163 158 163 166 176 180 183 182 183
264 276 283 266 284 299 307 313 323 327 325 319 317 311 307 290 263 254 215 187 184 194 206 206 201 191 178 170 171 186 190 194 196 187 172 164 166 179 182 188 187 186 190 184
266 281 288 288 300 303 296 299 307 310 309 309 312 308 299 296 280 254 229 200 199 201 208 218 214 199 186 185 190 192 196 196 196 184 165 162 159 146 123 178 187 191 188 185
287 302 306 307 293 284 286 291 292 294 298 296 300 296 290 286 264 249 234 212 213 208 209 223 222 209 200 196 199 200 202 197 190 184 174 173 170 168 165 90 156 196 193 190
301 303 298 301 302 302 294 290 287 287 289 285 283 280 278 276 262 246 232 220 216 217 212 216 218 214 205 198 199 205 203 196 192 194 189 186 191 189 179 172 177 217 213 195
292 292 291 305 307 302 299 295 288 283 284 283 282 277 270 263 259 254 238 228 222 220 217 215 215 211 193 197 203 212 209 197 189 187 187 186 189 192 187 188 185 181 163 179
283 286 286 288 288 292 294 292 289 285 284 281 280 277 274 266 258 258 241 227 229 228 219 212 211 201 193 200 206 204 202 208 198 186 189 193 192 195 195 196 194 189 188 182
276 277 281 282 283 285 285 285 285 284 283 280 278 276 274 268 258 253 245 235 237 240 229 213 209 193 192 199 207 205 198 198 200 197 202 202 201 204 203 200 202 202 200 190
267 268 272 279 283 286 286 287 290 292 290 288 288 284 278 270 261 256 252 238 234 237 235 216 194 188 201 211 215 209 212 202 198 205 208 207 206 210 208 204 208 212 207 195
273 279 284 287 290 293 291 292 291 290 292 289 286 282 276 275 267 260 261 253 245 247 242 200 209 221 224 224 225 210 212 212 207 209 211 214 216 220 218 211 209 209 203 197
279 287 290 292 294 296 297 295 295 295 293 290 287 285 284 282 275 262 245 249 252 259 262 204 215 237 245 237 240 221 215 212 208 211 215 217 220 221 221 219 216 211 209 206
276 283 290 297 302 304 301 296 292 292 295 296 296 300 302 302 300 281 251 261 280 303 268 202 211 221 222 240 239 228 220 219 214 214 214 216 221 224 224 221 221 217 211 208
276 284 289 293 298 301 303 297 294 299 302 302 303 306 306 304 306 308 307 310 316 322 302 230 250 254 260 253 228 222 218 219 221 224 223 219 220 224 225 223 226 225 216 208
286 294 297 297 300 301 305 303 301 296 292 291 295 295 299 308 312 303 293 319 330 309 307 278 280 273 270 241 225 224 226 224 223 226 229 227 226 226 224 223 226 230 222 217
291 293 298 302 307 304 301 303 300 294 294 295 299 303 302 297 302 303 303 297 313 297 287 266 265 271 252 237 225 227 230 229 229 231 234 233 235 232 225 223 223 225 226 232
302 297 299 304 300 297 294 296 304 307 301 301 312 316 308 297 293 301 309 295 279 285 289 260 257 256 248 250 236 241 244 240 240 237 238 239 236 232 228 225 220 219 220 228
307 297 297 302 301 297 292 291 282 272 268 292 306 306 301 300 304 307 305 276 258 277 287 259 236 234 242 244 237 245 248 254 254 243 242 244 240 234 231 232 232 229 232 232
303 297 295 291 294 300 302 296 284 280 273 268 283 291 295 300 304 300 298 277 267 276 278 247 233 240 249 259 266 273 279 273 264 264 260 252 244 234 230 232 223 220 225 221